Skip Page Navigation
NASA JPL Caltech
NASA Logo - Jet Propulsion Laboratory + View the NASA Portal
+ Center for Near-Earth Object Studies
JPL Home Earth Solar System Stars & Galaxies Technology
JPL Solar System Dynamics
BODIES ORBITS EPHEMERIDES TOOLS PHYSICAL DATA DISCOVERY FAQ SITE MAP
JPL Small-Body Database Browser
Search: [ help ]  
79415 (1997 JY15)
Classification: Main-belt Asteroid          SPK-ID: 2079415
Ephemeris | Orbit Diagram | Orbital Elements | Mission Design | Physical Parameters | Discovery Circumstances | Close-Approach Data ]

[ show orbit diagram ]
Orbital Elements at Epoch 2459000.5 (2020-May-31.0) TDB
Reference: JPL 16 (heliocentric ecliptic J2000)
 Element Value Uncertainty (1-sigma)   Units 
e .1551477874569407 5.4065e-08  
a 2.357851755706484 9.0666e-09 au
q 1.99203627265716 1.2667e-07 au
i 3.060676215040075 3.6724e-06 deg
node 116.8824483029339 0.0001098 deg
peri 93.6787968114799 0.00011052 deg
M 146.557690659951 1.2621e-05 deg
tp 2458462.131943226573
(2018-Dec-09.63194323)
4.5506e-05 TDB
period 1322.431457303223
3.62
7.6277e-06
2.088e-08
d
yr
n .2722258291814477 1.5702e-09 deg/d
Q 2.723667238755808 1.0473e-08 au
  Orbit Determination Parameters
   # obs. used (total)      579  
   data-arc span      8491 days (23.25 yr)  
   first obs. used      1997-04-29  
   last obs. used      2020-07-28  
   planetary ephem.      DE431  
   SB-pert. ephem.      SB431-N16  
   condition code      0  
   norm. resid. RMS      .60189  
   source      ORB  
   producer      Otto Matic  
   solution date      2020-Aug-25 07:35:07  

Additional Information
 Earth MOID = .989351 au 
 Jupiter MOID = 2.24137 au 
 T_jup = 3.535 
[ show covariance matrix ]

Ephemeris | Orbit Diagram | Orbital Elements | Mission Design | Physical Parameters | Discovery Circumstances | Close-Approach Data ]

Physical Parameter Table
Parameter Symbol Value Units Sigma Reference Notes
absolute magnitude H 16.0   n/a MPO432343  

79415 (1997 JY15)          Discovered 1997-May-03 by Elst, E. W. at La Silla
Reference: 20040504/Numbers.arcLast Updated: 2004-07-16

[ show close-approach data ]
Alternate Designations
 1997 JY15 = 1999 XX218 = 2000 AU246 
Ephemeris | Orbit Diagram | Orbital Elements | Mission Design | Physical Parameters | Discovery Circumstances | Close-Approach Data ]
ABOUT SSD CREDITS/AWARDS PRIVACY/COPYRIGHT GLOSSARY LINKS
FirstGov 2020-Sep-25 20:18 UT
(server date/time)  
NASA Home Page
Site Manager:   Ryan S. Park
Webmaster  Alan B. Chamberlin